Date String (YYYY-MM-DD hh:mm:ss) UTC,Instrument flags,absolute air pressure of the measurement (hPa),sample flow rate (lpm),inlet stack bypass flow (lpm),air temperature of the measurement (°C),ambient temperature measured by the external sensor (°C),aerosol sample conditioner tube jacket temperature (°C),OPC LED temperature (°C),internal box temperature (°C),relative humidity of the measurement (%),span deviation,mass concentration of particles derived from Lorenz-Mie calculation of OPC scattering (μg/m³),mass concentration of particles derived from Lorenz-Mie calculation of OPC scattering (μg/m³),mass concentration of particles derived from Lorenz-Mie calculation of OPC scattering (μg/m³)
DateTimeUTC,F1_M11,P_M11,Q1_M11,Q2_M11,T1_M11,T2_M11,T3_M11,T4_M11,T5_M11,U1_M11,ZSPAN_M11,X0_M11,X2_M11,X1_M11
2023-06-20 20:00:00,SystemResetWarning,0828.6,5.00,000.00,029.7,027.5,000.0,038.1,031.3,23.6,0000.0,0025.25,0006.71,0004.93
2023-06-20 20:01:00,SystemResetWarning,0828.6,5.00,000.00,029.6,025.4,000.0,038.0,031.2,24.3,0000.0,0025.68,0006.68,0004.85
2023-06-20 20:02:00,SystemResetWarning,0828.6,5.01,000.00,029.6,024.4,000.0,038.0,031.1,24.1,0000.0,0025.59,0006.62,0004.74
2023-06-20 20:03:00,SystemResetWarning,0828.6,5.01,000.00,029.5,024.6,000.0,037.9,030.9,22.6,0000.0,0025.46,0006.47,0004.65
2023-06-20 20:04:00,SystemResetWarning,0828.6,5.00,000.00,029.4,025.1,000.0,037.9,030.7,20.7,0000.0,0024.67,0006.32,0004.57
2023-06-20 20:05:00,SystemResetWarning,0828.6,5.00,000.00,029.4,025.6,000.0,037.9,030.7,19.6,0000.0,0023.32,0006.25,0004.48
2023-06-20 20:06:00,SystemResetWarning,0828.6,4.99,000.00,029.4,026.1,000.0,037.9,030.8,20.6,0000.0,0021.66,0006.15,0004.38
2023-06-20 20:07:00,SystemResetWarning,0828.6,4.99,000.00,029.4,026.5,000.0,037.9,030.8,19.7,0000.0,0020.86,0005.99,0004.28
2023-06-20 20:08:00,SystemResetWarning,0828.5,5.01,000.00,029.4,026.9,000.0,037.9,030.9,19.9,0000.0,0020.47,0005.84,0004.17
2023-06-20 20:09:00,SystemResetWarning,0828.6,5.02,000.00,029.4,027.2,000.0,038.0,030.9,21.0,0000.0,0020.67,0005.77,0004.07
2023-06-20 20:10:00,SystemResetWarning,0828.5,5.00,000.00,029.4,027.5,000.0,038.0,031.0,24.0,0000.0,0021.05,0005.74,0003.99
2023-06-20 20:11:00,SystemResetWarning,0828.5,5.00,000.00,029.5,027.7,000.0,038.0,031.1,22.7,0000.0,0019.43,0005.67,0003.93
2023-06-20 20:12:00,SystemResetWarning,0828.6,5.00,000.00,029.5,027.9,000.0,038.0,031.1,21.9,0000.0,0020.13,0005.58,0003.89
2023-06-20 20:13:00,SystemResetWarning,0828.6,5.00,000.00,029.5,028.1,000.0,038.0,031.2,21.7,0000.0,0020.35,0005.56,0003.88
2023-06-20 20:14:00,SystemResetWarning,0828.5,5.00,000.00,029.6,028.2,000.0,038.0,031.3,24.4,0000.0,0020.58,0005.59,0003.85
2023-06-20 20:15:00,SystemResetWarning,0828.5,4.99,000.00,029.6,027.4,000.0,038.0,031.3,25.1,0000.0,0021.38,0005.64,0003.83
2023-06-20 20:16:00,SystemResetWarning,0828.5,5.00,000.00,029.6,025.2,000.0,037.9,031.1,25.4,0000.0,0021.96,0005.62,0003.82
2023-06-20 20:17:00,SystemResetWarning,0828.5,5.00,000.00,029.6,024.4,000.0,037.9,031.0,25.8,0000.0,0023.24,0005.70,0003.85
2023-06-20 20:18:00,SystemResetWarning,0828.5,5.01,000.00,029.5,024.7,000.0,037.9,030.8,25.9,0000.0,0024.68,0005.83,0003.89
2023-06-20 20:19:00,SystemResetWarning,0828.5,5.01,000.00,029.4,025.2,000.0,037.9,030.6,27.7,0000.0,0025.46,0005.98,0003.95
2023-06-20 20:20:00,SystemResetWarning,0828.5,5.00,000.00,029.3,025.7,000.0,037.9,030.7,29.9,0000.0,0026.50,0006.10,0004.04
2023-06-20 20:21:00,SystemResetWarning,0828.5,5.00,000.00,029.3,026.2,000.0,037.9,030.8,29.8,0000.0,0025.94,0006.13,0004.11
2023-06-20 20:22:00,SystemResetWarning,0828.6,5.00,000.00,029.3,026.6,000.0,037.9,030.8,29.9,0000.0,0026.11,0006.20,0004.17
2023-06-20 20:23:00,SystemResetWarning,0828.5,5.00,000.00,029.4,027.0,000.0,037.9,030.9,29.2,0000.0,0025.70,0006.36,0004.25
2023-06-20 20:24:00,SystemResetWarning,0828.6,4.99,000.00,029.4,027.3,000.0,037.9,030.9,28.4,0000.0,0025.83,0006.62,0004.38
2023-06-20 20:25:00,SystemResetWarning,0828.5,5.00,000.00,029.4,027.6,000.0,037.9,031.0,27.1,0000.0,0027.06,0006.79,0004.48
2023-06-20 20:26:00,SystemResetWarning,0828.5,5.01,000.00,029.5,027.8,000.0,037.9,031.1,27.0,0000.0,0026.20,0006.84,0004.56
2023-06-20 20:27:00,SystemResetWarning,0828.5,5.01,000.00,029.5,028.0,000.0,038.0,031.1,27.8,0000.0,0025.38,0006.94,0004.64
2023-06-20 20:28:00,SystemResetWarning,0828.6,5.00,000.00,029.5,028.1,000.0,038.0,031.2,27.2,0000.0,0026.18,0006.94,0004.68
2023-06-20 20:29:00,SystemResetWarning,0828.5,4.99,000.00,029.6,028.3,000.0,038.0,031.2,26.7,0000.0,0025.79,0007.00,0004.70
2023-06-20 20:30:00,SystemResetWarning,0828.5,4.99,000.00,029.6,027.3,000.0,038.0,031.3,26.3,0000.0,0025.94,0007.09,0004.73
2023-06-20 20:31:00,SystemResetWarning,0828.4,5.00,000.00,029.6,025.2,000.0,037.9,031.1,26.6,0000.0,0024.71,0007.11,0004.75
2023-06-20 20:32:00,SystemResetWarning,0828.4,5.01,000.00,029.5,024.5,000.0,037.9,031.1,27.6,0000.0,0025.85,0007.17,0004.78
2023-06-20 20:33:00,SystemResetWarning,0828.4,5.02,000.00,029.5,024.8,000.0,037.9,030.8,27.6,0000.0,0028.35,0007.23,0004.80
2023-06-20 20:34:00,SystemResetWarning,0828.4,4.99,000.00,029.3,025.2,000.0,037.9,030.7,28.1,0000.0,0029.03,0007.22,0004.80
2023-06-20 20:35:00,SystemResetWarning,0828.4,5.00,000.00,029.3,025.8,000.0,037.9,030.7,27.9,0000.0,0028.59,0007.12,0004.77
2023-06-20 20:36:00,SystemResetWarning,0828.5,5.00,000.00,029.3,026.3,000.0,037.9,030.8,27.6,0000.0,0027.58,0007.07,0004.75
2023-06-20 20:37:00,SystemResetWarning,0828.6,5.01,000.00,029.3,026.7,000.0,037.9,030.8,27.1,0000.0,0028.42,0007.05,0004.74
2023-06-20 20:38:00,SystemResetWarning,0828.5,4.99,000.00,029.4,027.0,000.0,037.9,030.9,26.9,0000.0,0029.51,0007.01,0004.72
2023-06-20 20:39:00,SystemResetWarning,0828.5,5.00,000.00,029.4,027.4,000.0,037.9,031.0,27.8,0000.0,0027.74,0007.03,0004.73
2023-06-20 20:40:00,SystemResetWarning,0828.5,5.01,000.00,029.4,027.6,000.0,037.9,031.1,28.0,0000.0,0027.24,0007.03,0004.75
2023-06-20 20:41:00,SystemResetWarning,0828.6,5.00,000.00,029.5,027.8,000.0,037.9,031.1,27.0,0000.0,0027.66,0006.96,0004.75
2023-06-20 20:42:00,SystemResetWarning,0828.6,4.99,000.00,029.5,028.0,000.0,038.0,031.2,26.7,0000.0,0028.51,0006.92,0004.74
2023-06-20 20:43:00,SystemResetWarning,0828.6,5.00,000.00,029.6,028.2,000.0,038.0,031.2,27.2,0000.0,0029.39,0006.92,0004.74
2023-06-20 20:44:00,SystemResetWarning,0828.5,5.00,000.00,029.6,026.9,000.0,038.0,031.2,26.2,0000.0,0028.14,0006.91,0004.74
2023-06-20 20:45:00,SystemResetWarning,0828.5,5.00,000.00,029.5,024.9,000.0,037.9,031.1,26.7,0000.0,0027.62,0006.89,0004.73
2023-06-20 20:46:00,SystemResetWarning,0828.4,5.02,000.00,029.5,024.5,000.0,037.8,031.0,26.2,0000.0,0027.43,0006.90,0004.71
2023-06-20 20:47:00,SystemResetWarning,0828.4,4.99,000.00,029.4,024.8,000.0,037.8,030.7,25.4,0000.0,0028.36,0006.89,0004.71
2023-06-20 20:48:00,SystemResetWarning,0828.4,5.00,000.00,029.3,025.3,000.0,037.8,030.6,26.9,0000.0,0028.63,0006.94,0004.71
2023-06-20 20:49:00,SystemResetWarning,0828.4,4.99,000.00,029.3,025.8,000.0,037.8,030.7,26.3,0000.0,0029.17,0007.01,0004.72
2023-06-20 20:50:00,SystemResetWarning,0828.4,5.00,000.00,029.3,026.3,000.0,037.9,030.8,27.1,0000.0,0030.09,0007.00,0004.72
2023-06-20 20:51:00,SystemResetWarning,0828.4,5.01,000.00,029.3,026.7,000.0,037.9,030.8,25.7,0000.0,0031.94,0006.97,0004.72
2023-06-20 20:52:00,SystemResetWarning,0828.4,4.98,000.00,029.3,027.1,000.0,037.9,030.9,26.9,0000.0,0033.68,0006.99,0004.73
2023-06-20 20:53:00,SystemResetWarning,0828.4,5.00,000.00,029.4,027.4,000.0,037.9,031.0,25.9,0000.0,0034.94,0007.02,0004.75
2023-06-20 20:54:00,SystemResetWarning,0828.5,5.00,000.00,029.4,027.7,000.0,037.9,031.0,24.8,0000.0,0035.17,0007.05,0004.74
2023-06-20 20:55:00,SystemResetWarning,0828.5,5.00,000.00,029.4,027.9,000.0,037.9,031.1,25.0,0000.0,0034.80,0007.04,0004.74
2023-06-20 20:56:00,SystemResetWarning,0828.5,5.01,000.00,029.5,028.1,000.0,037.9,031.2,23.6,0000.0,0034.32,0007.00,0004.73
2023-06-20 20:57:00,SystemResetWarning,0828.6,5.00,000.00,029.5,028.2,000.0,038.0,031.2,25.1,0000.0,0034.05,0007.03,0004.74
2023-06-20 20:58:00,SystemResetWarning,0828.5,4.98,000.00,029.6,026.6,000.0,037.9,031.2,26.0,0000.0,0032.41,0007.02,0004.71
2023-06-20 20:59:00,SystemResetWarning,0828.4,5.01,000.00,029.5,024.8,000.0,037.9,031.0,25.2,0000.0,0031.53,0006.96,0004.70
